YV1836 KMEM-KJAN

Flight info

Callsign YV1836
Flight time 0h 43m
Altitude 30000
Route PIEPE6 IBUFY SQS/N0311F290
Aircraft C550/L-SDFGHRWY/S

Departure

Time 2026-05-08 03:55
Airport Memphis International Airport (KMEM)

Arrival

Time 2026-05-08 04:38
Airport Jackson-Medgar Wiley Evers International Airport (KJAN)
Time Latitude Longitude Altitude Speed Heading
2026-05-08 03:18 35.05525 -89.96618 341 ft 0 kts 90°
2026-05-08 03:40 35.05533 -89.96601 341 ft 5 kts 14°
2026-05-08 03:40 35.05578 -89.96598 341 ft 7 kts
2026-05-08 03:40 35.05593 -89.96609 341 ft 6 kts 241°
2026-05-08 03:41 35.05550 -89.96635 341 ft 7 kts 259°
2026-05-08 03:41 35.05550 -89.96656 341 ft 2 kts 270°
2026-05-08 03:41 35.05552 -89.96703 341 ft 16 kts 283°
2026-05-08 03:41 35.05601 -89.96861 341 ft 16 kts 295°
2026-05-08 03:42 35.05579 -89.96957 341 ft 16 kts 187°
2026-05-08 03:42 35.05434 -89.96987 341 ft 24 kts 189°
2026-05-08 03:42 35.05345 -89.97004 341 ft 12 kts 188°
2026-05-08 03:42 35.05226 -89.97027 341 ft 21 kts 188°
2026-05-08 03:43 35.05090 -89.97053 341 ft 15 kts 187°
2026-05-08 03:43 35.05001 -89.97066 341 ft 13 kts 182°
2026-05-08 03:43 35.04882 -89.97069 341 ft 20 kts 179°
2026-05-08 03:43 35.04714 -89.97065 341 ft 27 kts 179°
2026-05-08 03:44 35.04519 -89.97060 341 ft 27 kts 179°
2026-05-08 03:44 35.04387 -89.97075 341 ft 18 kts 194°
2026-05-08 03:44 35.04264 -89.97100 341 ft 17 kts 179°
2026-05-08 03:44 35.04141 -89.97098 341 ft 17 kts 179°
2026-05-08 03:45 35.04021 -89.97096 341 ft 17 kts 179°
2026-05-08 03:45 35.03901 -89.97093 341 ft 17 kts 179°
2026-05-08 03:45 35.03802 -89.97091 341 ft 13 kts 179°
2026-05-08 03:45 35.03704 -89.97089 341 ft 15 kts 179°
2026-05-08 03:46 35.03583 -89.97086 341 ft 19 kts 178°
2026-05-08 03:46 35.03438 -89.97083 341 ft 22 kts 178°
2026-05-08 03:46 35.03271 -89.97079 341 ft 25 kts 179°
2026-05-08 03:46 35.03119 -89.97076 341 ft 21 kts 179°
2026-05-08 03:47 35.02966 -89.97073 341 ft 22 kts 178°
2026-05-08 03:47 35.02816 -89.97044 341 ft 21 kts 166°
2026-05-08 03:47 35.02676 -89.97025 341 ft 19 kts 179°
2026-05-08 03:47 35.02543 -89.97022 341 ft 18 kts 179°
2026-05-08 03:48 35.02488 -89.97021 341 ft 0 kts 179°
2026-05-08 03:51 35.02456 -89.97024 341 ft 9 kts 196°
2026-05-08 03:52 35.02421 -89.97106 341 ft 14 kts 268°
2026-05-08 03:52 35.02420 -89.97195 341 ft 16 kts 269°
2026-05-08 03:52 35.02419 -89.97374 341 ft 14 kts 269°
2026-05-08 03:52 35.02418 -89.97444 341 ft 0 kts 269°
2026-05-08 03:54 35.02418 -89.97446 341 ft 1 kts 269°
2026-05-08 03:54 35.02418 -89.97472 341 ft 8 kts 269°
2026-05-08 03:54 35.02484 -89.97554 341 ft 23 kts 359°
2026-05-08 03:54 35.02800 -89.97561 341 ft 77 kts 359°
2026-05-08 03:55 35.03552 -89.97567 669 ft 124 kts
2026-05-08 03:55 35.04418 -89.97536 1465 ft 133 kts
2026-05-08 03:55 35.05356 -89.97506 2307 ft 141 kts
2026-05-08 03:55 35.06311 -89.97515 3176 ft 143 kts 359°
2026-05-08 03:56 35.07315 -89.97537 3956 ft 156 kts 359°
2026-05-08 03:56 35.08511 -89.97564 4545 ft 185 kts 359°
2026-05-08 03:56 35.09855 -89.97997 4881 ft 225 kts 329°
2026-05-08 03:56 35.11256 -89.99188 4915 ft 269 kts 324°
2026-05-08 03:57 35.12816 -90.00575 4910 ft 274 kts 324°
2026-05-08 03:57 35.14336 -90.01959 4906 ft 268 kts 320°
2026-05-08 03:57 35.15286 -90.03827 4907 ft 263 kts 283°
2026-05-08 03:57 35.15436 -90.05978 5193 ft 248 kts 273°
2026-05-08 03:58 35.15529 -90.08072 5585 ft 252 kts 272°
2026-05-08 03:58 35.15612 -90.10274 6096 ft 268 kts 272°
2026-05-08 03:58 35.15671 -90.12615 6682 ft 279 kts 266°
2026-05-08 03:58 35.15024 -90.14810 7302 ft 284 kts 231°
2026-05-08 03:59 35.13623 -90.16473 8170 ft 280 kts 222°
2026-05-08 03:59 35.12206 -90.18050 9017 ft 276 kts 222°
2026-05-08 03:59 35.10796 -90.19594 9849 ft 273 kts 221°
2026-05-08 03:59 35.09197 -90.20716 10651 ft 269 kts 192°
2026-05-08 04:00 35.07370 -90.20710 11442 ft 266 kts 175°
2026-05-08 04:00 35.05536 -90.20518 12235 ft 264 kts 175°
2026-05-08 04:00 35.03751 -90.20314 13002 ft 261 kts 174°
2026-05-08 04:00 35.01954 -90.20076 13769 ft 258 kts 173°
2026-05-08 04:01 35.00209 -90.19796 14511 ft 256 kts 173°
2026-05-08 04:01 34.98461 -90.19514 15248 ft 253 kts 173°
2026-05-08 04:01 34.96739 -90.19237 15968 ft 251 kts 172°
2026-05-08 04:01 34.95018 -90.18960 16680 ft 248 kts 172°
2026-05-08 04:02 34.93332 -90.18687 17372 ft 245 kts 172°
2026-05-08 04:02 34.91678 -90.18420 18044 ft 243 kts 172°
2026-05-08 04:02 34.90004 -90.18151 18663 ft 243 kts 172°
2026-05-08 04:02 34.88331 -90.17881 19275 ft 242 kts 172°
2026-05-08 04:03 34.86670 -90.17613 19879 ft 244 kts 172°
2026-05-08 04:03 34.83299 -90.17069 21104 ft 247 kts 172°
2026-05-08 04:03 34.81598 -90.16795 21718 ft 247 kts 172°
2026-05-08 04:04 34.79909 -90.16523 22325 ft 247 kts 172°
2026-05-08 04:04 34.78215 -90.16250 22929 ft 246 kts 172°
2026-05-08 04:04 34.76528 -90.15978 23525 ft 245 kts 172°
2026-05-08 04:04 34.74852 -90.15708 24021 ft 246 kts 172°
2026-05-08 04:05 34.73160 -90.15436 24470 ft 247 kts 172°
2026-05-08 04:05 34.71462 -90.15162 24920 ft 248 kts 172°
2026-05-08 04:05 34.69745 -90.14885 25374 ft 249 kts 172°
2026-05-08 04:05 34.68038 -90.14610 25822 ft 249 kts 172°
2026-05-08 04:06 34.66327 -90.14335 26268 ft 249 kts 172°
2026-05-08 04:06 34.64613 -90.14059 26712 ft 248 kts 172°
2026-05-08 04:06 34.62921 -90.13786 27145 ft 248 kts 172°
2026-05-08 04:06 34.61205 -90.13510 27580 ft 247 kts 172°
2026-05-08 04:07 34.59524 -90.13240 28000 ft 246 kts 172°
2026-05-08 04:07 34.57839 -90.12968 28417 ft 245 kts 172°
2026-05-08 04:07 34.56145 -90.12696 28830 ft 244 kts 172°
2026-05-08 04:07 34.54472 -90.12427 29232 ft 243 kts 172°
2026-05-08 04:08 34.52799 -90.12158 29628 ft 242 kts 172°
2026-05-08 04:08 34.51144 -90.11892 29883 ft 247 kts 172°
2026-05-08 04:08 34.49377 -90.11607 29918 ft 261 kts 172°
2026-05-08 04:08 34.47545 -90.11313 29922 ft 275 kts 172°
2026-05-08 04:09 34.45590 -90.10998 29921 ft 288 kts 172°
2026-05-08 04:09 34.43576 -90.10932 29923 ft 300 kts 185°
2026-05-08 04:09 34.41470 -90.11211 29921 ft 311 kts 186°
2026-05-08 04:09 34.39278 -90.11521 29920 ft 321 kts 187°
2026-05-08 04:10 34.34745 -90.12170 29919 ft 337 kts 187°
2026-05-08 04:10 34.30008 -90.12851 29919 ft 349 kts 187°
2026-05-08 04:11 34.25161 -90.13547 30008 ft 355 kts 187°
2026-05-08 04:11 34.20198 -90.14116 30010 ft 361 kts 184°
2026-05-08 04:12 34.15145 -90.14523 30009 ft 366 kts 184°
2026-05-08 04:12 34.10051 -90.14932 30009 ft 369 kts 184°
2026-05-08 04:13 34.04955 -90.15694 30009 ft 371 kts 189°
2026-05-08 04:13 33.99900 -90.16763 30009 ft 373 kts 190°
2026-05-08 04:14 33.96473 -90.17479 30009 ft 374 kts 190°
2026-05-08 04:14 33.89651 -90.18905 30009 ft 375 kts 190°
2026-05-08 04:15 33.86228 -90.19621 30009 ft 375 kts 190°
2026-05-08 04:15 33.79372 -90.21056 30009 ft 375 kts 190°
2026-05-08 04:16 33.74257 -90.22126 30009 ft 376 kts 190°
2026-05-08 04:16 33.69967 -90.23025 30009 ft 376 kts 190°
2026-05-08 04:17 33.63961 -90.24284 30003 ft 376 kts 190°
2026-05-08 04:17 33.61390 -90.24823 29739 ft 383 kts 190°
2026-05-08 04:17 33.59623 -90.25193 29557 ft 387 kts 190°
2026-05-08 04:18 33.56196 -90.25912 29038 ft 371 kts 190°
2026-05-08 04:18 33.53689 -90.26439 28482 ft 358 kts 190°
2026-05-08 04:18 33.51260 -90.26949 27936 ft 351 kts 190°
2026-05-08 04:18 33.48875 -90.27450 27397 ft 345 kts 190°
2026-05-08 04:19 33.46546 -90.27783 26866 ft 341 kts 179°
2026-05-08 04:19 33.45755 -90.27714 26687 ft 340 kts 174°
2026-05-08 04:19 33.41890 -90.27081 25812 ft 334 kts 172°
2026-05-08 04:19 33.39634 -90.26695 25300 ft 331 kts 172°
2026-05-08 04:20 33.37364 -90.26305 24784 ft 328 kts 172°
2026-05-08 04:20 33.35106 -90.25916 24038 ft 328 kts 172°
2026-05-08 04:20 33.32857 -90.25529 23195 ft 329 kts 172°
2026-05-08 04:20 33.30624 -90.25143 22363 ft 330 kts 172°
2026-05-08 04:21 33.28357 -90.24753 21521 ft 329 kts 172°
2026-05-08 04:21 33.26140 -90.24371 20820 ft 323 kts 172°
2026-05-08 04:21 33.23924 -90.23990 20138 ft 317 kts 172°
2026-05-08 04:21 33.21791 -90.23623 19480 ft 312 kts 172°
2026-05-08 04:22 33.19649 -90.23254 18817 ft 308 kts 172°
2026-05-08 04:22 33.17564 -90.22895 18170 ft 304 kts 172°
2026-05-08 04:22 33.15488 -90.22538 17526 ft 300 kts 172°
2026-05-08 04:22 33.13451 -90.22188 16892 ft 297 kts 172°
2026-05-08 04:23 33.11415 -90.21838 16259 ft 293 kts 172°
2026-05-08 04:23 33.09420 -90.21494 15638 ft 291 kts 172°
2026-05-08 04:23 33.07443 -90.21155 15022 ft 288 kts 172°
2026-05-08 04:23 33.05476 -90.20816 14410 ft 286 kts 172°
2026-05-08 04:24 33.03517 -90.20480 13800 ft 283 kts 172°
2026-05-08 04:24 33.01607 -90.20152 13206 ft 281 kts 172°
2026-05-08 04:24 32.99684 -90.19821 12607 ft 279 kts 172°
2026-05-08 04:24 32.97771 -90.19492 12012 ft 277 kts 172°
2026-05-08 04:25 32.95879 -90.19167 11424 ft 275 kts 172°
2026-05-08 04:25 32.94033 -90.18850 11084 ft 264 kts 172°
2026-05-08 04:25 32.92279 -90.18549 11042 ft 245 kts 172°
2026-05-08 04:25 32.90645 -90.18269 11039 ft 233 kts 172°
2026-05-08 04:26 32.89018 -90.17989 11041 ft 237 kts 172°
2026-05-08 04:26 32.87393 -90.17711 11042 ft 241 kts 172°
2026-05-08 04:26 32.85720 -90.17423 11042 ft 244 kts 172°
2026-05-08 04:26 32.84027 -90.17133 11041 ft 246 kts 172°
2026-05-08 04:27 32.82322 -90.16840 10898 ft 254 kts 172°
2026-05-08 04:27 32.80548 -90.16535 10575 ft 263 kts 172°
2026-05-08 04:27 32.78724 -90.16222 10180 ft 264 kts 172°
2026-05-08 04:27 32.76931 -90.15914 9793 ft 264 kts 172°
2026-05-08 04:28 32.75111 -90.15601 9401 ft 264 kts 172°
2026-05-08 04:28 32.73913 -90.15396 9143 ft 260 kts 172°
2026-05-08 04:28 32.71538 -90.14989 8626 ft 255 kts 172°
2026-05-08 04:28 32.69815 -90.14693 8249 ft 252 kts 172°
2026-05-08 04:29 32.68090 -90.14397 7871 ft 249 kts 172°
2026-05-08 04:29 32.66383 -90.14105 7495 ft 247 kts 172°
2026-05-08 04:29 32.64697 -90.13816 7124 ft 246 kts 172°
2026-05-08 04:29 32.63014 -90.13528 6753 ft 244 kts 172°
2026-05-08 04:30 32.61340 -90.13241 6383 ft 239 kts 172°
2026-05-08 04:30 32.59717 -90.12962 6020 ft 234 kts 172°
2026-05-08 04:30 32.58112 -90.12688 5657 ft 228 kts 172°
2026-05-08 04:30 32.56570 -90.12424 5303 ft 222 kts 172°
2026-05-08 04:31 32.55057 -90.12165 4951 ft 217 kts 172°
2026-05-08 04:31 32.53621 -90.11919 4608 ft 202 kts 172°
2026-05-08 04:31 32.52288 -90.11691 4291 ft 183 kts 172°
2026-05-08 04:31 32.51102 -90.11489 4047 ft 163 kts 172°
2026-05-08 04:32 32.50007 -90.11302 3670 ft 158 kts 172°
2026-05-08 04:32 32.48931 -90.11118 3285 ft 153 kts 172°
2026-05-08 04:32 32.47889 -90.10941 2907 ft 151 kts 172°
2026-05-08 04:32 32.46865 -90.10765 2597 ft 146 kts 172°
2026-05-08 04:33 32.45886 -90.10598 2574 ft 140 kts 172°
2026-05-08 04:33 32.44907 -90.10430 2548 ft 144 kts 172°
2026-05-08 04:33 32.43912 -90.10260 2543 ft 146 kts 172°
2026-05-08 04:33 32.42920 -90.10090 2536 ft 135 kts 172°
2026-05-08 04:34 32.42057 -90.09946 2529 ft 116 kts 173°
2026-05-08 04:34 32.41293 -90.09844 2516 ft 109 kts 174°
2026-05-08 04:34 32.40541 -90.09747 2323 ft 105 kts 174°
2026-05-08 04:34 32.39828 -90.09655 2113 ft 101 kts 174°
2026-05-08 04:35 32.39145 -90.09566 1906 ft 97 kts 174°
2026-05-08 04:35 32.38492 -90.09483 1731 ft 91 kts 174°
2026-05-08 04:35 32.37882 -90.09404 1573 ft 90 kts 174°
2026-05-08 04:35 32.37234 -90.09320 1392 ft 96 kts 174°
2026-05-08 04:36 32.36570 -90.09235 1233 ft 97 kts 174°
2026-05-08 04:36 32.35901 -90.09148 1079 ft 97 kts 174°
2026-05-08 04:36 32.35232 -90.09061 968 ft 97 kts 174°
2026-05-08 04:36 32.34552 -90.08973 962 ft 98 kts 174°
2026-05-08 04:37 32.33868 -90.08959 882 ft 98 kts 182°
2026-05-08 04:37 32.33181 -90.08955 801 ft 97 kts 178°
2026-05-08 04:37 32.32509 -90.08843 681 ft 98 kts 164°
2026-05-08 04:37 32.31883 -90.08580 550 ft 95 kts 158°
2026-05-08 04:38 32.31265 -90.08289 328 ft 94 kts 158°
2026-05-08 04:38 32.30725 -90.08028 316 ft 71 kts 159°
2026-05-08 04:38 32.30375 -90.07864 317 ft 31 kts 159°
2026-05-08 04:38 32.30258 -90.07797 317 ft 12 kts 116°
2026-05-08 04:39 32.30273 -90.07717 319 ft 8 kts 69°
2026-05-08 04:39 32.30290 -90.07670 320 ft 4 kts 67°
2026-05-08 04:39 32.30302 -90.07638 320 ft 4 kts 68°
2026-05-08 04:39 32.30316 -90.07596 321 ft 6 kts 55°
2026-05-08 04:40 32.30362 -90.07595 322 ft 8 kts 340°
2026-05-08 04:40 32.30425 -90.07624 323 ft 10 kts 338°
2026-05-08 04:40 32.30502 -90.07661 323 ft 13 kts 336°
2026-05-08 04:40 32.30563 -90.07691 323 ft 3 kts 338°
2026-05-08 04:41 32.30603 -90.07711 322 ft 8 kts 338°
2026-05-08 04:41 32.30671 -90.07741 322 ft 6 kts
2026-05-08 04:41 32.30691 -90.07709 322 ft 4 kts 65°
2026-05-08 04:41 32.30712 -90.07661 323 ft 9 kts 36°
2026-05-08 04:42 32.30751 -90.07626 324 ft 5 kts 89°
2026-05-08 04:42 32.30736 -90.07623 324 ft 2 kts 248°
2026-05-08 04:42 32.30735 -90.07626 324 ft 0 kts 246°